contact:dominique.lefevre@mio.osupytheas.fr, maurice.libes@osupytheas.fr, didier.mallarino@osupytheas.fr
Project:EMSO http://www.emso-fr.org/EMSO-France
Depth: 2436.0 m
Title:EMSO Ligure Ouest : Data MII capteur CSTAR
DateTime,Latitude,Longitude,Instrument_Serial,Reference_Counts,Signal_Counts,Corrected_Signal_raw_counts,Calculated_Beam_c_inverse_meters,Internal_thermistor_counts
DateTime,Latitude,Longitude,Instrument_Serial,Reference_Counts,Signal_Counts,Corrected_Signal_raw_counts,Calculated_Beam_c_inverse_meters,Internal_thermistor_counts
2019-11-25T00:01:58,42.805,6.029,CST-1368DR,7294,10218,15299,0.082,551
2019-11-25T00:05:00,42.805,6.029,CST-1368DR,7294,10216,15296,0.083,551
2019-11-25T00:08:01,42.805,6.029,CST-1368DR,7294,10219,15300,0.082,551
2019-11-25T00:11:03,42.805,6.029,CST-1368DR,7294,10218,15298,0.082,551
2019-11-25T00:14:05,42.805,6.029,CST-1368DR,7294,10220,15302,0.081,551
2019-11-25T00:17:06,42.805,6.029,CST-1368DR,7294,10219,15300,0.082,551
2019-11-25T00:20:08,42.805,6.029,CST-1368DR,7294,10217,15298,0.082,551
2019-11-25T00:23:10,42.805,6.029,CST-1368DR,7294,10220,15301,0.082,551
2019-11-25T00:26:11,42.805,6.029,CST-1368DR,7294,10217,15297,0.083,551
2019-11-25T00:29:13,42.805,6.029,CST-1368DR,7294,10220,15301,0.082,551
2019-11-25T00:32:14,42.805,6.029,CST-1368DR,7294,10217,15296,0.083,551
2019-11-25T00:35:16,42.805,6.029,CST-1368DR,7294,10216,15296,0.083,551
2019-11-25T00:38:18,42.805,6.029,CST-1368DR,7294,10220,15301,0.082,551
2019-11-25T00:41:19,42.805,6.029,CST-1368DR,7294,10218,15298,0.082,551
2019-11-25T00:44:21,42.805,6.029,CST-1368DR,7294,10219,15301,0.082,551
2019-11-25T00:47:23,42.805,6.029,CST-1368DR,7293,10217,15299,0.082,551
2019-11-25T00:50:24,42.805,6.029,CST-1368DR,7293,10217,15299,0.082,551
2019-11-25T00:53:26,42.805,6.029,CST-1368DR,7293,10216,15298,0.082,551
2019-11-25T00:56:27,42.805,6.029,CST-1368DR,7293,10216,15298,0.082,550
2019-11-25T00:59:30,42.805,6.029,CST-1368DR,7293,10218,15300,0.082,551
2019-11-25T01:02:32,42.805,6.029,CST-1368DR,7293,10218,15300,0.082,550
2019-11-25T01:05:33,42.805,6.029,CST-1368DR,7293,10216,15297,0.083,551
2019-11-25T01:08:35,42.805,6.029,CST-1368DR,7293,10218,15300,0.082,551
2019-11-25T01:11:36,42.805,6.029,CST-1368DR,7293,10218,15300,0.082,551
2019-11-25T01:14:38,42.805,6.029,CST-1368DR,7293,10218,15300,0.082,551
2019-11-25T01:17:40,42.805,6.029,CST-1368DR,7293,10217,15299,0.082,551
2019-11-25T01:20:41,42.805,6.029,CST-1368DR,7293,10218,15301,0.082,551
2019-11-25T01:23:43,42.805,6.029,CST-1368DR,7293,10217,15299,0.082,551
2019-11-25T01:26:44,42.805,6.029,CST-1368DR,7293,10219,15302,0.081,551
2019-11-25T01:29:46,42.805,6.029,CST-1368DR,7293,10218,15301,0.082,550
2019-11-25T01:32:48,42.805,6.029,CST-1368DR,7293,10217,15298,0.082,551
2019-11-25T01:35:49,42.805,6.029,CST-1368DR,7293,10218,15300,0.082,551
2019-11-25T01:38:51,42.805,6.029,CST-1368DR,7293,10216,15298,0.082,551
2019-11-25T01:41:53,42.805,6.029,CST-1368DR,7293,10216,15298,0.082,551
2019-11-25T01:44:54,42.805,6.029,CST-1368DR,7293,10219,15301,0.082,551
2019-11-25T01:47:56,42.805,6.029,CST-1368DR,7293,10218,15301,0.082,551
2019-11-25T01:50:58,42.805,6.029,CST-1368DR,7293,10218,15300,0.082,551
2019-11-25T01:53:59,42.805,6.029,CST-1368DR,7293,10218,15300,0.082,551
2019-11-25T01:57:01,42.805,6.029,CST-1368DR,7293,10217,15298,0.082,551
2019-11-25T02:00:03,42.805,6.029,CST-1368DR,7293,10216,15298,0.082,551
2019-11-25T02:03:04,42.805,6.029,CST-1368DR,7293,10216,15298,0.082,550
2019-11-25T02:06:06,42.805,6.029,CST-1368DR,7293,10217,15299,0.082,551
2019-11-25T02:09:07,42.805,6.029,CST-1368DR,7293,10216,15298,0.082,551
2019-11-25T02:12:09,42.805,6.029,CST-1368DR,7293,10217,15298,0.082,550
2019-11-25T02:15:11,42.805,6.029,CST-1368DR,7293,10218,15300,0.082,551
2019-11-25T02:18:12,42.805,6.029,CST-1368DR,7293,10218,15300,0.082,551
2019-11-25T02:21:14,42.805,6.029,CST-1368DR,7293,10217,15298,0.082,551
2019-11-25T02:24:16,42.805,6.029,CST-1368DR,7293,10216,15298,0.082,551
2019-11-25T02:35:07,42.805,6.029,CST-1368DR,7293,10218,15300,0.082,551
2019-11-25T02:38:09,42.805,6.029,CST-1368DR,7293,10217,15299,0.082,551
2019-11-25T02:41:10,42.805,6.029,CST-1368DR,7293,10217,15299,0.082,551
2019-11-25T02:44:12,42.805,6.029,CST-1368DR,7293,10217,15299,0.082,551
2019-11-25T02:47:14,42.805,6.029,CST-1368DR,7293,10217,15299,0.082,551
2019-11-25T02:50:15,42.805,6.029,CST-1368DR,7293,10217,15299,0.082,551
2019-11-25T02:53:17,42.805,6.029,CST-1368DR,7293,10216,15298,0.082,551
2019-11-25T02:56:18,42.805,6.029,CST-1368DR,7293,10217,15299,0.082,551
2019-11-25T02:59:20,42.805,6.029,CST-1368DR,7293,10217,15299,0.082,551
2019-11-25T03:02:22,42.805,6.029,CST-1368DR,7293,10217,15299,0.082,551
2019-11-25T03:05:23,42.805,6.029,CST-1368DR,7293,10217,15298,0.082,551
2019-11-25T03:08:25,42.805,6.029,CST-1368DR,7293,10216,15297,0.083,551
2019-11-25T03:11:27,42.805,6.029,CST-1368DR,7293,10216,15298,0.082,551
2019-11-25T03:14:28,42.805,6.029,CST-1368DR,7293,10214,15295,0.083,551
2019-11-25T03:17:30,42.805,6.029,CST-1368DR,7293,10216,15298,0.082,551
2019-11-25T03:20:31,42.805,6.029,CST-1368DR,7293,10217,15299,0.082,551
2019-11-25T03:23:33,42.805,6.029,CST-1368DR,7293,10216,15298,0.082,551
2019-11-25T03:26:35,42.805,6.029,CST-1368DR,7293,10217,15299,0.082,551
2019-11-25T03:29:36,42.805,6.029,CST-1368DR,7293,10218,15300,0.082,550
2019-11-25T03:32:38,42.805,6.029,CST-1368DR,7293,10217,15299,0.082,551
2019-11-25T03:35:40,42.805,6.029,CST-1368DR,7293,10214,15294,0.083,551
2019-11-25T03:38:41,42.805,6.029,CST-1368DR,7293,10216,15298,0.082,551
2019-11-25T03:41:43,42.805,6.029,CST-1368DR,7293,10217,15299,0.082,551
2019-11-25T03:44:45,42.805,6.029,CST-1368DR,7293,10217,15298,0.082,551
2019-11-25T03:47:46,42.805,6.029,CST-1368DR,7293,10216,15298,0.082,551
2019-11-25T03:50:48,42.805,6.029,CST-1368DR,7293,10217,15299,0.082,550
2019-11-25T03:53:50,42.805,6.029,CST-1368DR,7293,10217,15298,0.082,550
2019-11-25T03:56:51,42.805,6.029,CST-1368DR,7293,10216,15297,0.083,551
2019-11-25T03:59:53,42.805,6.029,CST-1368DR,7293,10217,15299,0.082,551
2019-11-25T04:02:54,42.805,6.029,CST-1368DR,7293,10215,15296,0.083,551
2019-11-25T04:05:56,42.805,6.029,CST-1368DR,7293,10217,15299,0.082,551
2019-11-25T04:08:58,42.805,6.029,CST-1368DR,7293,10216,15298,0.082,550
2019-11-25T04:11:59,42.805,6.029,CST-1368DR,7293,10217,15299,0.082,551
2019-11-25T04:15:01,42.805,6.029,CST-1368DR,7293,10216,15298,0.082,551
2019-11-25T04:18:03,42.805,6.029,CST-1368DR,7293,10217,15298,0.082,551
2019-11-25T04:21:04,42.805,6.029,CST-1368DR,7293,10215,15296,0.083,550
2019-11-25T04:24:06,42.805,6.029,CST-1368DR,7293,10218,15300,0.082,551
2019-11-25T04:27:07,42.805,6.029,CST-1368DR,7293,10217,15298,0.082,551
2019-11-25T04:30:09,42.805,6.029,CST-1368DR,7293,10217,15299,0.082,551
2019-11-25T04:33:11,42.805,6.029,CST-1368DR,7293,10218,15300,0.082,551
2019-11-25T04:36:12,42.805,6.029,CST-1368DR,7293,10218,15301,0.082,551
2019-11-25T04:39:14,42.805,6.029,CST-1368DR,7293,10217,15299,0.082,551
2019-11-25T04:42:16,42.805,6.029,CST-1368DR,7293,10217,15298,0.082,551
2019-11-25T04:45:17,42.805,6.029,CST-1368DR,7292,10217,15300,0.082,551
2019-11-25T04:48:19,42.805,6.029,CST-1368DR,7292,10217,15300,0.082,550
2019-11-25T04:51:21,42.805,6.029,CST-1368DR,7292,10217,15301,0.082,551
2019-11-25T04:54:22,42.805,6.029,CST-1368DR,7292,10216,15300,0.082,551
2019-11-25T04:57:24,42.805,6.029,CST-1368DR,7293,10217,15299,0.082,551
2019-11-25T05:00:25,42.805,6.029,CST-1368DR,7292,10217,15301,0.082,551
2019-11-25T05:03:27,42.805,6.029,CST-1368DR,7292,10215,15298,0.082,551
2019-11-25T05:06:29,42.805,6.029,CST-1368DR,7292,10218,15302,0.081,551
2019-11-25T05:09:30,42.805,6.029,CST-1368DR,7292,10218,15302,0.081,551
2019-11-25T05:12:32,42.805,6.029,CST-1368DR,7292,10217,15301,0.082,551
2019-11-25T05:15:34,42.805,6.029,CST-1368DR,7292,10218,15302,0.081,551
2019-11-25T05:18:35,42.805,6.029,CST-1368DR,7292,10218,15302,0.081,551
2019-11-25T05:21:37,42.805,6.029,CST-1368DR,7292,10216,15300,0.082,551
2019-11-25T05:24:39,42.805,6.029,CST-1368DR,7292,10217,15300,0.082,551
2019-11-25T05:27:41,42.805,6.029,CST-1368DR,7292,10217,15300,0.082,551
2019-11-25T05:30:42,42.805,6.029,CST-1368DR,7292,10217,15300,0.082,551
2019-11-25T05:33:44,42.805,6.029,CST-1368DR,7292,10218,15302,0.081,550
2019-11-25T05:36:45,42.805,6.029,CST-1368DR,7292,10218,15302,0.081,551
2019-11-25T05:39:47,42.805,6.029,CST-1368DR,7292,10217,15300,0.082,551
2019-11-25T05:42:49,42.805,6.029,CST-1368DR,7292,10217,15300,0.082,551
2019-11-25T05:45:51,42.805,6.029,CST-1368DR,7292,10218,15302,0.081,551
2019-11-25T05:48:52,42.805,6.029,CST-1368DR,7292,10218,15302,0.081,551
2019-11-25T05:51:54,42.805,6.029,CST-1368DR,7292,10216,15299,0.082,551
2019-11-25T05:54:55,42.805,6.029,CST-1368DR,7292,10218,15302,0.081,551
2019-11-25T05:57:57,42.805,6.029,CST-1368DR,7292,10217,15301,0.082,551
2019-11-25T06:00:59,42.805,6.029,CST-1368DR,7292,10218,15302,0.081,551
2019-11-25T06:04:00,42.805,6.029,CST-1368DR,7292,10216,15300,0.082,551
2019-11-25T06:07:02,42.805,6.029,CST-1368DR,7292,10218,15303,0.081,551
2019-11-25T06:10:04,42.805,6.029,CST-1368DR,7292,10217,15300,0.082,551
2019-11-25T06:13:05,42.805,6.029,CST-1368DR,7292,10214,15297,0.083,550
2019-11-25T06:16:07,42.805,6.029,CST-1368DR,7292,10218,15302,0.081,551
2019-11-25T06:19:09,42.805,6.029,CST-1368DR,7292,10216,15300,0.082,551
2019-11-25T06:22:10,42.805,6.029,CST-1368DR,7292,10217,15301,0.082,551
2019-11-25T06:25:12,42.805,6.029,CST-1368DR,7292,10217,15301,0.082,551
2019-11-25T06:28:14,42.805,6.029,CST-1368DR,7292,10218,15302,0.081,551
2019-11-25T06:31:15,42.805,6.029,CST-1368DR,7292,10217,15301,0.082,551
2019-11-25T06:34:17,42.805,6.029,CST-1368DR,7292,10210,15290,0.084,551
2019-11-25T06:37:19,42.805,6.029,CST-1368DR,7292,10217,15301,0.082,551
2019-11-25T06:40:20,42.805,6.029,CST-1368DR,7292,10217,15301,0.082,551
2019-11-25T06:43:22,42.805,6.029,CST-1368DR,7292,10217,15301,0.082,551
2019-11-25T06:46:24,42.805,6.029,CST-1368DR,7292,10215,15298,0.082,551
2019-11-25T06:49:26,42.805,6.029,CST-1368DR,7292,10216,15300,0.082,550
2019-11-25T06:52:27,42.805,6.029,CST-1368DR,7292,10213,15295,0.083,551
2019-11-25T06:55:29,42.805,6.029,CST-1368DR,7292,10216,15300,0.082,551
2019-11-25T06:58:31,42.805,6.029,CST-1368DR,7292,10217,15301,0.082,551
2019-11-25T07:01:32,42.805,6.029,CST-1368DR,7292,10215,15298,0.082,551
2019-11-25T07:04:34,42.805,6.029,CST-1368DR,7292,10216,15300,0.082,551
2019-11-25T07:07:36,42.805,6.029,CST-1368DR,7292,10217,15301,0.082,551
2019-11-25T07:10:37,42.805,6.029,CST-1368DR,7292,10216,15299,0.082,551
2019-11-25T07:13:39,42.805,6.029,CST-1368DR,7292,10216,15300,0.082,551
2019-11-25T07:16:41,42.805,6.029,CST-1368DR,7292,10217,15300,0.082,551
2019-11-25T07:19:42,42.805,6.029,CST-1368DR,7292,10217,15300,0.082,551
2019-11-25T07:22:44,42.805,6.029,CST-1368DR,7292,10218,15302,0.081,551
2019-11-25T07:25:46,42.805,6.029,CST-1368DR,7292,10218,15302,0.081,551
2019-11-25T07:28:48,42.805,6.029,CST-1368DR,7292,10216,15300,0.082,551
2019-11-25T07:31:49,42.805,6.029,CST-1368DR,7292,10217,15301,0.082,551
2019-11-25T07:34:51,42.805,6.029,CST-1368DR,7292,10217,15300,0.082,551
2019-11-25T07:37:52,42.805,6.029,CST-1368DR,7292,10217,15301,0.082,551
2019-11-25T07:40:54,42.805,6.029,CST-1368DR,7291,10215,15300,0.082,551
2019-11-25T07:43:56,42.805,6.029,CST-1368DR,7292,10216,15300,0.082,551
2019-11-25T07:46:57,42.805,6.029,CST-1368DR,7292,10217,15300,0.082,551
2019-11-25T07:49:59,42.805,6.029,CST-1368DR,7292,10217,15301,0.082,551
2019-11-25T07:53:01,42.805,6.029,CST-1368DR,7292,10215,15298,0.082,551
2019-11-25T07:56:03,42.805,6.029,CST-1368DR,7292,10217,15300,0.082,551
2019-11-25T07:59:04,42.805,6.029,CST-1368DR,7291,10216,15301,0.082,551
2019-11-25T08:02:06,42.805,6.029,CST-1368DR,7291,10216,15301,0.082,551
2019-11-25T08:05:08,42.805,6.029,CST-1368DR,7291,10216,15301,0.082,551
2019-11-25T08:08:09,42.805,6.029,CST-1368DR,7291,10216,15302,0.081,551
2019-11-25T08:11:11,42.805,6.029,CST-1368DR,7291,10216,15301,0.082,551
2019-11-25T08:14:12,42.805,6.029,CST-1368DR,7291,10217,15302,0.081,551
2019-11-25T08:17:14,42.805,6.029,CST-1368DR,7291,10213,15297,0.083,551
2019-11-25T08:20:16,42.805,6.029,CST-1368DR,7291,10216,15301,0.082,551
2019-11-25T08:23:17,42.805,6.029,CST-1368DR,7291,10215,15300,0.082,551
2019-11-25T08:26:19,42.805,6.029,CST-1368DR,7291,10213,15296,0.083,551
2019-11-25T08:29:21,42.805,6.029,CST-1368DR,7291,10216,15301,0.082,551
2019-11-25T08:32:22,42.805,6.029,CST-1368DR,7291,10210,15292,0.084,551
2019-11-25T08:35:24,42.805,6.029,CST-1368DR,7291,10215,15300,0.082,551
2019-11-25T08:38:26,42.805,6.029,CST-1368DR,7291,10215,15300,0.082,551
2019-11-25T08:41:27,42.805,6.029,CST-1368DR,7291,10216,15302,0.081,551
2019-11-25T08:44:29,42.805,6.029,CST-1368DR,7291,10215,15300,0.082,551
2019-11-25T08:47:31,42.805,6.029,CST-1368DR,7291,10214,15299,0.082,550
2019-11-25T08:50:32,42.805,6.029,CST-1368DR,7291,10215,15299,0.082,551
2019-11-25T08:53:34,42.805,6.029,CST-1368DR,7291,10215,15300,0.082,551
2019-11-25T08:56:36,42.805,6.029,CST-1368DR,7291,10216,15301,0.082,550
2019-11-25T08:59:37,42.805,6.029,CST-1368DR,7291,10214,15298,0.082,551
2019-11-25T09:02:39,42.805,6.029,CST-1368DR,7291,10215,15300,0.082,551
2019-11-25T09:05:41,42.805,6.029,CST-1368DR,7291,10214,15298,0.082,551
2019-11-25T09:08:42,42.805,6.029,CST-1368DR,7291,10214,15299,0.082,550
2019-11-25T09:11:44,42.805,6.029,CST-1368DR,7291,10214,15298,0.082,551
2019-11-25T09:14:46,42.805,6.029,CST-1368DR,7291,10214,15299,0.082,551
2019-11-25T09:17:47,42.805,6.029,CST-1368DR,7291,10209,15291,0.084,551
2019-11-25T09:20:49,42.805,6.029,CST-1368DR,7291,10213,15297,0.083,551
2019-11-25T09:23:50,42.805,6.029,CST-1368DR,7291,10214,15299,0.082,550
2019-11-25T09:26:52,42.805,6.029,CST-1368DR,7291,10215,15299,0.082,551
2019-11-25T09:29:54,42.805,6.029,CST-1368DR,7291,10214,15298,0.082,551
2019-11-25T09:32:55,42.805,6.029,CST-1368DR,7291,10215,15299,0.082,551
2019-11-25T09:35:57,42.805,6.029,CST-1368DR,7291,10214,15298,0.082,551
2019-11-25T09:38:59,42.805,6.029,CST-1368DR,7291,10214,15299,0.082,551
2019-11-25T09:42:00,42.805,6.029,CST-1368DR,7291,10214,15298,0.082,551
2019-11-25T09:45:02,42.805,6.029,CST-1368DR,7291,10214,15299,0.082,551
2019-11-25T09:48:04,42.805,6.029,CST-1368DR,7291,10215,15300,0.082,550
2019-11-25T09:51:05,42.805,6.029,CST-1368DR,7291,10214,15298,0.082,551
2019-11-25T09:54:07,42.805,6.029,CST-1368DR,7291,10213,15297,0.083,551
2019-11-25T09:57:09,42.805,6.029,CST-1368DR,7291,10213,15297,0.083,551
2019-11-25T10:00:10,42.805,6.029,CST-1368DR,7291,10214,15299,0.082,550
2019-11-25T10:03:12,42.805,6.029,CST-1368DR,7291,10214,15299,0.082,551
2019-11-25T10:06:14,42.805,6.029,CST-1368DR,7291,10214,15298,0.082,551
2019-11-25T10:09:15,42.805,6.029,CST-1368DR,7291,10215,15300,0.082,551
2019-11-25T10:12:17,42.805,6.029,CST-1368DR,7291,10213,15297,0.083,551
2019-11-25T10:15:18,42.805,6.029,CST-1368DR,7291,10214,15298,0.082,551
2019-11-25T10:18:20,42.805,6.029,CST-1368DR,7291,10214,15299,0.082,551
2019-11-25T10:21:22,42.805,6.029,CST-1368DR,7291,10214,15298,0.082,551
2019-11-25T10:24:23,42.805,6.029,CST-1368DR,7291,10213,15297,0.083,551
2019-11-25T10:27:25,42.805,6.029,CST-1368DR,7291,10215,15299,0.082,551
2019-11-25T10:30:27,42.805,6.029,CST-1368DR,7291,10214,15299,0.082,551
2019-11-25T10:33:28,42.805,6.029,CST-1368DR,7291,10214,15298,0.082,551
2019-11-25T10:36:30,42.805,6.029,CST-1368DR,7291,10213,15297,0.083,551
2019-11-25T10:39:32,42.805,6.029,CST-1368DR,7291,10214,15298,0.082,551
2019-11-25T10:42:33,42.805,6.029,CST-1368DR,7291,10215,15300,0.082,551
2019-11-25T10:45:35,42.805,6.029,CST-1368DR,7291,10214,15299,0.082,551
2019-11-25T10:48:36,42.805,6.029,CST-1368DR,7291,10215,15299,0.082,551
2019-11-25T10:51:38,42.805,6.029,CST-1368DR,7291,10214,15298,0.082,550
2019-11-25T10:54:40,42.805,6.029,CST-1368DR,7291,10214,15299,0.082,551
2019-11-25T10:57:42,42.805,6.029,CST-1368DR,7291,10214,15299,0.082,551
2019-11-25T11:00:43,42.805,6.029,CST-1368DR,7290,10214,15300,0.082,551
2019-11-25T11:03:45,42.805,6.029,CST-1368DR,7291,10214,15299,0.082,551
2019-11-25T11:06:46,42.805,6.029,CST-1368DR,7291,10213,15297,0.083,551
2019-11-25T11:09:48,42.805,6.029,CST-1368DR,7290,10213,15299,0.082,551
2019-11-25T11:12:50,42.805,6.029,CST-1368DR,7290,10213,15299,0.082,551
2019-11-25T11:15:51,42.805,6.029,CST-1368DR,7290,10213,15299,0.082,551
2019-11-25T11:18:53,42.805,6.029,CST-1368DR,7290,10215,15301,0.082,551
2019-11-25T11:21:54,42.805,6.029,CST-1368DR,7290,10214,15300,0.082,550
2019-11-25T11:24:56,42.805,6.029,CST-1368DR,7290,10212,15297,0.083,551
2019-11-25T11:27:58,42.805,6.029,CST-1368DR,7290,10214,15300,0.082,551
2019-11-25T11:30:59,42.805,6.029,CST-1368DR,7290,10214,15300,0.082,551
2019-11-25T11:34:01,42.805,6.029,CST-1368DR,7290,10214,15300,0.082,551
2019-11-25T11:37:03,42.805,6.029,CST-1368DR,7290,10212,15298,0.082,551
2019-11-25T11:40:04,42.805,6.029,CST-1368DR,7290,10214,15300,0.082,551
2019-11-25T11:43:06,42.805,6.029,CST-1368DR,7290,10214,15300,0.082,550
2019-11-25T11:46:07,42.805,6.029,CST-1368DR,7290,10214,15301,0.082,551
2019-11-25T11:49:09,42.805,6.029,CST-1368DR,7290,10214,15300,0.082,551
2019-11-25T11:52:11,42.805,6.029,CST-1368DR,7290,10214,15300,0.082,551
2019-11-25T11:55:12,42.805,6.029,CST-1368DR,7290,10213,15299,0.082,550
2019-11-25T11:58:14,42.805,6.029,CST-1368DR,7290,10213,15299,0.082,551
2019-11-25T12:01:16,42.805,6.029,CST-1368DR,7290,10213,15299,0.082,551
2019-11-25T12:04:17,42.805,6.029,CST-1368DR,7290,10212,15298,0.082,551
2019-11-25T12:07:19,42.805,6.029,CST-1368DR,7290,10214,15300,0.082,551
2019-11-25T12:10:21,42.805,6.029,CST-1368DR,7290,10211,15296,0.083,551
2019-11-25T12:13:23,42.805,6.029,CST-1368DR,7290,10213,15299,0.082,551
2019-11-25T12:16:24,42.805,6.029,CST-1368DR,7290,10214,15300,0.082,551
2019-11-25T12:19:26,42.805,6.029,CST-1368DR,7290,10205,15287,0.085,551
2019-11-25T12:22:28,42.805,6.029,CST-1368DR,7290,10214,15300,0.082,551
2019-11-25T12:25:29,42.805,6.029,CST-1368DR,7290,10214,15300,0.082,551
2019-11-25T12:28:31,42.805,6.029,CST-1368DR,7290,10214,15300,0.082,551
2019-11-25T12:31:33,42.805,6.029,CST-1368DR,7290,10212,15298,0.082,551
2019-11-25T12:34:34,42.805,6.029,CST-1368DR,7290,10211,15296,0.083,551
2019-11-25T12:37:36,42.805,6.029,CST-1368DR,7290,10213,15299,0.082,551
2019-11-25T12:40:38,42.805,6.029,CST-1368DR,7290,10214,15300,0.082,551
2019-11-25T12:43:39,42.805,6.029,CST-1368DR,7290,10213,15298,0.082,551
2019-11-25T12:46:41,42.805,6.029,CST-1368DR,7290,10213,15298,0.082,551
2019-11-25T12:49:43,42.805,6.029,CST-1368DR,7290,10213,15299,0.082,551
2019-11-25T12:52:44,42.805,6.029,CST-1368DR,7290,10212,15298,0.082,551
2019-11-25T12:55:46,42.805,6.029,CST-1368DR,7290,10213,15298,0.082,551
2019-11-25T12:58:47,42.805,6.029,CST-1368DR,7290,10213,15299,0.082,551
2019-11-25T13:01:49,42.805,6.029,CST-1368DR,7290,10211,15296,0.083,551
2019-11-25T13:04:51,42.805,6.029,CST-1368DR,7290,10214,15300,0.082,551
2019-11-25T13:07:53,42.805,6.029,CST-1368DR,7290,10212,15297,0.083,551
2019-11-25T13:10:54,42.805,6.029,CST-1368DR,7290,10213,15299,0.082,551
2019-11-25T13:13:56,42.805,6.029,CST-1368DR,7290,10212,15297,0.083,551
2019-11-25T13:16:57,42.805,6.029,CST-1368DR,7290,10213,15299,0.082,551
2019-11-25T13:19:59,42.805,6.029,CST-1368DR,7290,10212,15297,0.083,551
2019-11-25T13:23:01,42.805,6.029,CST-1368DR,7290,10213,15298,0.082,551
2019-11-25T13:26:02,42.805,6.029,CST-1368DR,7290,10212,15297,0.083,550
2019-11-25T13:29:04,42.805,6.029,CST-1368DR,7290,10213,15299,0.082,551
2019-11-25T13:32:06,42.805,6.029,CST-1368DR,7290,10213,15299,0.082,551
2019-11-25T13:35:07,42.805,6.029,CST-1368DR,7290,10213,15298,0.082,551
2019-11-25T13:38:09,42.805,6.029,CST-1368DR,7290,10213,15298,0.082,551
2019-11-25T13:41:10,42.805,6.029,CST-1368DR,7290,10213,15299,0.082,551
2019-11-25T13:44:12,42.805,6.029,CST-1368DR,7290,10212,15298,0.082,551
2019-11-25T13:47:14,42.805,6.029,CST-1368DR,7290,10212,15297,0.083,551
2019-11-25T13:50:15,42.805,6.029,CST-1368DR,7290,10211,15296,0.083,551
2019-11-25T13:53:17,42.805,6.029,CST-1368DR,7290,10210,15295,0.083,551
2019-11-25T13:56:19,42.805,6.029,CST-1368DR,7290,10213,15299,0.082,550
2019-11-25T13:59:20,42.805,6.029,CST-1368DR,7290,10213,15299,0.082,551
2019-11-25T14:02:22,42.805,6.029,CST-1368DR,7290,10213,15299,0.082,551
2019-11-25T14:05:24,42.805,6.029,CST-1368DR,7290,10212,15297,0.083,551
2019-11-25T14:08:25,42.805,6.029,CST-1368DR,7290,10213,15299,0.082,551
2019-11-25T14:11:27,42.805,6.029,CST-1368DR,7290,10212,15298,0.082,551
2019-11-25T14:14:28,42.805,6.029,CST-1368DR,7289,10213,15301,0.082,551
2019-11-25T14:17:30,42.805,6.029,CST-1368DR,7289,10213,15300,0.082,550
2019-11-25T14:20:32,42.805,6.029,CST-1368DR,7289,10212,15299,0.082,551
2019-11-25T14:23:33,42.805,6.029,CST-1368DR,7290,10211,15296,0.083,551
2019-11-25T14:26:35,42.805,6.029,CST-1368DR,7289,10213,15301,0.082,551
2019-11-25T14:29:37,42.805,6.029,CST-1368DR,7289,10211,15298,0.082,551
2019-11-25T14:32:38,42.805,6.029,CST-1368DR,7289,10212,15300,0.082,551
2019-11-25T14:35:40,42.805,6.029,CST-1368DR,7290,10213,15298,0.082,551
2019-11-25T14:38:41,42.805,6.029,CST-1368DR,7289,10213,15301,0.082,551
2019-11-25T14:41:43,42.805,6.029,CST-1368DR,7289,10213,15300,0.082,551
2019-11-25T14:44:45,42.805,6.029,CST-1368DR,7290,10213,15299,0.082,551
2019-11-25T14:47:46,42.805,6.029,CST-1368DR,7289,10212,15299,0.082,551
2019-11-25T14:50:48,42.805,6.029,CST-1368DR,7289,10206,15290,0.084,551
2019-11-25T14:53:50,42.805,6.029,CST-1368DR,7289,10210,15296,0.083,551
2019-11-25T14:56:51,42.805,6.029,CST-1368DR,7289,10212,15299,0.082,551
2019-11-25T14:59:53,42.805,6.029,CST-1368DR,7289,10212,15299,0.082,551
2019-11-25T15:02:54,42.805,6.029,CST-1368DR,7289,10211,15298,0.082,551
2019-11-25T15:05:56,42.805,6.029,CST-1368DR,7289,10212,15299,0.082,551
2019-11-25T15:08:58,42.805,6.029,CST-1368DR,7289,10212,15299,0.082,551
2019-11-25T15:11:59,42.805,6.029,CST-1368DR,7289,10211,15297,0.083,550
2019-11-25T15:15:01,42.805,6.029,CST-1368DR,7289,10213,15301,0.082,551
2019-11-25T15:18:03,42.805,6.029,CST-1368DR,7289,10213,15301,0.082,551
2019-11-25T15:21:04,42.805,6.029,CST-1368DR,7289,10212,15299,0.082,551
2019-11-25T15:24:06,42.805,6.029,CST-1368DR,7289,10212,15300,0.082,551
2019-11-25T15:27:07,42.805,6.029,CST-1368DR,7289,10212,15300,0.082,551
2019-11-25T15:30:09,42.805,6.029,CST-1368DR,7289,10212,15299,0.082,551
2019-11-25T15:33:11,42.805,6.029,CST-1368DR,7289,10213,15301,0.082,551
2019-11-25T15:36:12,42.805,6.029,CST-1368DR,7289,10212,15299,0.082,551
2019-11-25T15:39:14,42.805,6.029,CST-1368DR,7289,10213,15300,0.082,551
2019-11-25T15:42:16,42.805,6.029,CST-1368DR,7289,10213,15300,0.082,551
2019-11-25T15:45:17,42.805,6.029,CST-1368DR,7289,10213,15300,0.082,551
2019-11-25T15:48:19,42.805,6.029,CST-1368DR,7289,10210,15296,0.083,550
2019-11-25T15:51:20,42.805,6.029,CST-1368DR,7289,10212,15300,0.082,551
2019-11-25T15:54:22,42.805,6.029,CST-1368DR,7289,10212,15299,0.082,551
2019-11-25T15:57:24,42.805,6.029,CST-1368DR,7289,10211,15298,0.082,551
2019-11-25T16:00:25,42.805,6.029,CST-1368DR,7289,10211,15298,0.082,551
2019-11-25T16:03:27,42.805,6.029,CST-1368DR,7289,10213,15300,0.082,551
2019-11-25T16:06:29,42.805,6.029,CST-1368DR,7289,10211,15298,0.082,551
2019-11-25T16:09:30,42.805,6.029,CST-1368DR,7289,10213,15301,0.082,551
2019-11-25T16:12:32,42.805,6.029,CST-1368DR,7289,10213,15300,0.082,551
2019-11-25T16:15:33,42.805,6.029,CST-1368DR,7289,10212,15299,0.082,551
2019-11-25T16:18:35,42.805,6.029,CST-1368DR,7289,10212,15300,0.082,551
2019-11-25T16:21:37,42.805,6.029,CST-1368DR,7289,10212,15299,0.082,551
2019-11-25T16:24:38,42.805,6.029,CST-1368DR,7289,10211,15298,0.082,550
2019-11-25T16:27:40,42.805,6.029,CST-1368DR,7289,10213,15301,0.082,551
2019-11-25T16:30:41,42.805,6.029,CST-1368DR,7289,10211,15298,0.082,551
2019-11-25T16:33:43,42.805,6.029,CST-1368DR,7289,10211,15298,0.082,551
2019-11-25T16:36:45,42.805,6.029,CST-1368DR,7289,10212,15300,0.082,551
2019-11-25T16:39:46,42.805,6.029,CST-1368DR,7289,10213,15300,0.082,551
2019-11-25T16:42:48,42.805,6.029,CST-1368DR,7289,10212,15299,0.082,551
2019-11-25T16:45:50,42.805,6.029,CST-1368DR,7289,10213,15300,0.082,551